Hourly Data Report for April 03, 2021

KENORA A
ONTARIO
Current Station Operator: NAVCAN

49°47'18.000" N
94°21'47.000" W
409.70 m
6034076
71850
YQK

Download Data

Hourly Data (April 2021)
Hourly Data Report for April 3, 2021
TIME
LST
Temp Definition
°C
Dew Point Definition
°C
Rel Hum Definition
%
Precip. Amount Definition
mm

Wind Dir Definition
10's deg

Wind Spd Definition
km/h
Visibility Definition
km
Stn Press Definition
kPa
Hmdx Definition


Wind Chill Definition


Weather Definition


00:00 4.9 -4.5 51   33 15 32.2 96.49     Clear
01:00 3.3 -5.5 52   33 17 32.2 96.59     LegendNANA
02:00 2.9 -6.7 49   33 13 32.2 96.64     LegendNANA
03:00 2.5 -7.1 49   32 13 32.2 96.69     Clear
04:00 2.0 -7.2 51   31 13 32.2 96.75     LegendNANA
05:00 1.2 -7.3 53   33 3 32.2 96.81     LegendNANA
06:00 0.9 -7.2 55   32 7 32.2 96.91     Mainly Clear
07:00 1.5 -7.0 53   30 11 32.2 96.99     LegendNANA
08:00 2.6 -6.7 51   32 16 32.2 97.04     LegendNANA
09:00 4.9 -5.6 46   33 10 32.2 97.06     Mainly Clear
10:00 7.8 -5.6 38   33 16 32.2 97.14     LegendNANA
11:00 9.7 -5.5 34   30 13 32.2 97.12     LegendNANA
12:00 11.2 -7.9 25   30 12 32.2 97.10     Mainly Clear
13:00 12.0 -10.1 20   33 13 32.2 97.06     LegendNANA
14:00 12.8 -7.2 24   31 11 32.2 97.09     LegendNANA
15:00 13.5 -7.4 23   35 11 32.2 97.07     Mostly Cloudy
16:00 12.3 -6.8 26   33 10 32.2 97.04     LegendNANA
17:00 12.3 -6.0 27   4 7 32.2 97.00     LegendNANA
18:00 11.7 -6.3 28   9 3 32.2 97.00     Cloudy
19:00 10.2 -7.2 29   27 4 32.2 97.02     LegendNANA
20:00 9.6 -8.2 28   36 3 32.2 97.03     LegendNANA
21:00 9.6 -7.5 29   7 8 32.2 97.01     Cloudy
22:00 8.4 -5.7 36   6 13 32.2 96.95     LegendNANA
23:00 7.7 -5.8 38   6 13 32.2 96.92     LegendNANA

Notes on Data Quality.

Legend

  • E = Estimated
  • M = Missing
  • NA = Not Available*
  • [empty] = Indicates an unobserved value
Date modified: